Chicago Executive Airport (PWK)


Airport Diagram
Current Weather/Forecast (MVFR Conditions)
METAR KPWK 162252Z 30008KT 10SM OVC016 03/M01 A2970 RMK AO2 SLP061 T00281006
TAF

All Charts
General
Chart Name Download
AIRPORT DIAGRAM
TAKEOFF MINIMUMS
ALTERNATE MINIMUMS
HOT SPOT
LAHSO

Departures
Chart Name Download
JORJO FIVE (RNAV)
MONKZ FIVE (RNAV)
MONKZ FIVE (RNAV), CONT.1
PAL-WAUKEE FIVE

Approaches
Chart Name Download
ILS OR LOC RWY 16
RNAV (GPS) RWY 16
VOR RWY 16